Time,TemperatureF,DewpointF,PressureIn,WindDirection,WindDirectionDegrees,WindSpeedMPH,WindSpeedGustMPH,Humidity,HourlyPrecipIn,Conditions,Clouds,dailyrainin,SoftwareType,DateUTC
2013-07-18 00:01:00,73.6,73.6,29.18,West,265,3.1,4.0,100,0.00,,---,0.00,VWS V14.01,2013-07-18 05:01:00,
2013-07-18 00:06:00,73.6,73.6,29.18,West,271,3.1,3.6,100,0.00,,---,0.00,VWS V14.01,2013-07-18 05:06:00,
2013-07-18 00:11:00,73.6,73.6,29.18,West,271,3.6,3.6,100,0.00,,---,0.00,VWS V14.01,2013-07-18 05:11:00,
2013-07-18 00:16:00,73.6,73.6,29.18,WSW,250,3.1,3.1,100,0.00,,---,0.00,VWS V14.01,2013-07-18 05:16:00,
2013-07-18 00:21:00,73.9,73.9,29.18,WSW,249,2.2,2.2,100,0.00,,---,0.00,VWS V14.01,2013-07-18 05:21:00,
2013-07-18 00:26:00,74.1,74.1,29.18,WSW,255,2.2,2.2,100,0.00,,---,0.00,VWS V14.01,2013-07-18 05:26:00,
2013-07-18 00:31:00,74.1,74.1,29.18,West,274,2.7,2.7,100,0.00,,---,0.00,VWS V14.01,2013-07-18 05:31:00,
2013-07-18 00:36:00,73.9,73.9,29.18,West,272,0.0,0.0,100,0.00,,---,0.00,VWS V14.01,2013-07-18 05:36:00,
2013-07-18 00:41:00,73.6,73.6,29.18,WNW,288,0.0,0.0,100,0.00,,---,0.00,VWS V14.01,2013-07-18 05:41:00,
2013-07-18 00:46:00,73.4,73.4,29.18,West,264,4.0,4.0,100,0.00,,---,0.00,VWS V14.01,2013-07-18 05:46:00,
2013-07-18 00:51:00,73.2,73.2,29.18,West,266,0.0,3.6,100,0.00,,---,0.00,VWS V14.01,2013-07-18 05:51:00,
2013-07-18 00:56:00,73.0,73.1,29.18,West,267,0.0,0.0,100,0.00,,---,0.00,VWS V14.01,2013-07-18 05:56:00,
2013-07-18 01:01:00,73.0,73.1,29.18,WNW,283,0.0,0.0,100,0.00,,---,0.00,VWS V14.01,2013-07-18 06:01:00,
2013-07-18 01:06:00,72.9,72.9,29.18,West,275,2.7,2.7,100,0.00,,---,0.00,VWS V14.01,2013-07-18 06:06:00,
2013-07-18 01:11:00,72.9,72.9,29.18,West,273,0.0,3.6,100,0.00,,---,0.00,VWS V14.01,2013-07-18 06:11:00,
2013-07-18 01:16:00,72.9,72.9,29.18,West,273,0.0,0.0,100,0.00,,---,0.00,VWS V14.01,2013-07-18 06:16:00,
2013-07-18 01:21:00,72.7,72.7,29.18,West,270,3.1,3.6,100,0.00,,---,0.00,VWS V14.01,2013-07-18 06:21:00,
2013-07-18 01:26:00,72.7,72.7,29.18,West,265,0.0,0.0,100,0.00,,---,0.00,VWS V14.01,2013-07-18 06:26:00,
2013-07-18 01:31:00,72.5,72.5,29.18,West,265,0.0,0.0,100,0.00,,---,0.00,VWS V14.01,2013-07-18 06:31:00,
2013-07-18 01:36:00,72.5,72.5,29.15,West,281,0.0,0.0,100,0.00,,---,0.00,VWS V14.01,2013-07-18 06:36:00,
2013-07-18 01:41:00,72.5,72.5,29.15,West,280,0.0,0.0,100,0.00,,---,0.00,VWS V14.01,2013-07-18 06:41:00,
2013-07-18 01:45:00,72.3,72.3,29.15,West,267,0.0,0.0,100,0.00,,---,0.00,VWS V14.01,2013-07-18 06:45:00,
2013-07-18 01:50:00,72.3,72.3,29.18,West,267,0.0,0.0,100,0.00,,---,0.00,VWS V14.01,2013-07-18 06:50:00,
2013-07-18 01:55:00,72.3,72.3,29.18,West,268,0.0,0.0,100,0.00,,---,0.00,VWS V14.01,2013-07-18 06:55:00,
2013-07-18 02:00:00,72.3,72.3,29.18,West,268,0.0,0.0,100,0.00,,---,0.00,VWS V14.01,2013-07-18 07:00:00,
2013-07-18 02:05:00,72.3,72.3,29.18,WNW,286,0.0,0.0,100,0.00,,---,0.00,VWS V14.01,2013-07-18 07:05:00,
2013-07-18 02:10:00,72.3,72.3,29.18,WSW,256,3.1,3.1,100,0.00,,---,0.00,VWS V14.01,2013-07-18 07:10:00,
2013-07-18 02:15:00,72.5,72.5,29.18,West,280,0.0,0.0,100,0.00,,---,0.00,VWS V14.01,2013-07-18 07:15:00,
2013-07-18 02:20:00,72.5,72.5,29.18,West,280,0.0,0.0,100,0.00,,---,0.00,VWS V14.01,2013-07-18 07:20:00,
2013-07-18 02:25:00,72.5,72.5,29.18,WNW,283,0.0,0.0,100,0.00,,---,0.00,VWS V14.01,2013-07-18 07:25:00,
2013-07-18 02:30:00,72.5,72.5,29.18,WNW,283,0.0,0.0,100,0.00,,---,0.00,VWS V14.01,2013-07-18 07:30:00,
2013-07-18 02:35:00,72.5,72.5,29.18,WNW,283,0.0,0.0,100,0.00,,---,0.00,VWS V14.01,2013-07-18 07:35:00,
2013-07-18 02:40:00,72.5,72.5,29.18,West,260,0.0,0.0,100,0.00,,---,0.00,VWS V14.01,2013-07-18 07:40:00,
2013-07-18 02:45:00,72.5,72.5,29.18,West,260,0.0,0.0,100,0.00,,---,0.00,VWS V14.01,2013-07-18 07:45:00,
2013-07-18 02:50:00,72.5,72.5,29.18,West,269,3.6,3.6,100,0.00,,---,0.00,VWS V14.01,2013-07-18 07:50:00,
2013-07-18 02:55:00,72.5,72.5,29.18,WSW,249,0.0,0.0,100,0.00,,---,0.00,VWS V14.01,2013-07-18 07:55:00,
2013-07-18 03:00:00,72.5,72.5,29.18,West,272,0.0,0.0,100,0.00,,---,0.00,VWS V14.01,2013-07-18 08:00:00,
2013-07-18 03:05:00,72.5,72.5,29.18,West,272,0.0,0.0,100,0.00,,---,0.00,VWS V14.01,2013-07-18 08:05:00,
2013-07-18 03:10:00,72.5,72.5,29.18,West,272,0.0,0.0,100,0.00,,---,0.00,VWS V14.01,2013-07-18 08:10:00,
2013-07-18 03:15:00,72.3,72.3,29.18,West,272,0.0,0.0,100,0.00,,---,0.00,VWS V14.01,2013-07-18 08:15:00,
2013-07-18 03:20:00,72.3,72.3,29.18,West,259,0.0,0.0,100,0.00,,---,0.00,VWS V14.01,2013-07-18 08:20:00,
2013-07-18 03:25:00,72.3,72.3,29.18,West,263,0.0,0.0,100,0.00,,---,0.00,VWS V14.01,2013-07-18 08:25:00,
2013-07-18 03:30:00,72.5,72.5,29.18,WSW,252,0.0,0.0,100,0.00,,---,0.00,VWS V14.01,2013-07-18 08:30:00,
2013-07-18 03:35:00,72.5,72.5,29.18,WSW,252,0.0,0.0,100,0.00,,---,0.00,VWS V14.01,2013-07-18 08:35:00,
2013-07-18 03:40:00,72.5,72.5,29.18,West,280,3.1,3.1,100,0.00,,---,0.00,VWS V14.01,2013-07-18 08:40:00,
2013-07-18 03:45:00,72.5,72.5,29.18,WSW,258,0.0,2.2,100,0.00,,---,0.00,VWS V14.01,2013-07-18 08:45:00,
2013-07-18 03:50:00,72.5,72.5,29.15,WNW,283,3.1,3.1,100,0.00,,---,0.00,VWS V14.01,2013-07-18 08:50:00,
2013-07-18 03:55:00,72.9,72.9,29.15,WNW,302,0.0,2.7,100,0.00,,---,0.00,VWS V14.01,2013-07-18 08:55:00,
2013-07-18 04:00:00,73.0,73.1,29.15,West,269,3.6,3.6,100,0.00,,---,0.00,VWS V14.01,2013-07-18 09:00:00,
2013-07-18 04:05:00,73.2,73.2,29.15,West,281,2.7,3.1,100,0.00,,---,0.00,VWS V14.01,2013-07-18 09:05:00,
2013-07-18 04:10:00,73.2,73.2,29.15,WNW,285,0.0,0.0,100,0.00,,---,0.00,VWS V14.01,2013-07-18 09:10:00,
2013-07-18 04:15:00,73.2,73.2,29.15,WSW,245,2.7,3.1,100,0.00,,---,0.00,VWS V14.01,2013-07-18 09:15:00,
2013-07-18 04:20:00,73.4,73.4,29.15,West,269,2.7,3.1,100,0.00,,---,0.00,VWS V14.01,2013-07-18 09:20:00,
2013-07-18 04:25:00,73.8,73.8,29.15,West,277,0.0,3.1,100,0.00,,---,0.00,VWS V14.01,2013-07-18 09:25:00,
2013-07-18 04:30:00,74.1,74.1,29.15,WSW,248,2.7,3.6,100,0.00,,---,0.00,VWS V14.01,2013-07-18 09:30:00,
2013-07-18 04:35:00,74.3,74.3,29.15,West,263,3.1,3.1,100,0.00,,---,0.00,VWS V14.01,2013-07-18 09:35:00,
2013-07-18 04:40:00,74.3,74.3,29.15,WSW,253,2.2,3.6,100,0.00,,---,0.00,VWS V14.01,2013-07-18 09:40:00,
2013-07-18 04:45:00,74.1,74.1,29.15,West,275,2.7,4.5,100,0.00,,---,0.00,VWS V14.01,2013-07-18 09:45:00,
2013-07-18 04:50:00,74.1,74.1,29.15,WNW,283,2.7,2.7,100,0.00,,---,0.00,VWS V14.01,2013-07-18 09:50:00,
2013-07-18 04:55:00,74.3,74.3,29.15,West,275,0.0,0.0,100,0.00,,---,0.00,VWS V14.01,2013-07-18 09:55:00,
2013-07-18 05:00:00,74.5,74.5,29.15,West,281,0.0,0.0,100,0.00,,---,0.00,VWS V14.01,2013-07-18 10:00:00,
2013-07-18 05:05:00,74.3,74.3,29.15,West,273,0.0,0.0,100,0.00,,---,0.00,VWS V14.01,2013-07-18 10:05:00,
2013-07-18 05:10:00,74.1,74.1,29.15,SW,221,3.1,3.6,100,0.00,,---,0.00,VWS V14.01,2013-07-18 10:10:00,
2013-07-18 05:15:00,74.3,74.3,29.15,West,274,3.6,3.6,100,0.00,,---,0.00,VWS V14.01,2013-07-18 10:15:00,
2013-07-18 05:20:00,74.3,74.3,29.12,West,268,0.0,0.0,100,0.00,,---,0.00,VWS V14.01,2013-07-18 10:20:00,
2013-07-18 05:25:00,73.9,73.9,29.12,West,273,2.7,3.1,100,0.00,,---,0.00,VWS V14.01,2013-07-18 10:25:00,
2013-07-18 05:30:00,73.8,73.8,29.12,West,280,2.2,2.2,100,0.00,,---,0.00,VWS V14.01,2013-07-18 10:30:00,
2013-07-18 05:35:00,73.8,73.8,29.12,WNW,284,2.7,4.0,100,0.00,,---,0.00,VWS V14.01,2013-07-18 10:35:00,
2013-07-18 05:40:00,73.6,73.6,29.12,West,275,3.1,3.1,100,0.00,,---,0.00,VWS V14.01,2013-07-18 10:40:00,
2013-07-18 05:45:00,73.4,73.4,29.12,WSW,250,2.7,5.4,100,0.00,,---,0.00,VWS V14.01,2013-07-18 10:45:00,
2013-07-18 05:50:00,73.4,73.4,29.12,West,279,0.0,0.0,100,0.00,,---,0.00,VWS V14.01,2013-07-18 10:50:00,
2013-07-18 05:55:00,73.2,73.2,29.12,NW,304,3.1,4.0,100,0.00,,---,0.00,VWS V14.01,2013-07-18 10:55:00,
2013-07-18 06:00:00,73.2,73.2,29.12,WNW,297,0.0,0.0,100,0.00,,---,0.00,VWS V14.01,2013-07-18 11:00:00,
2013-07-18 06:05:00,73.2,73.2,29.12,WNW,291,2.7,3.6,100,0.00,,---,0.00,VWS V14.01,2013-07-18 11:05:00,
2013-07-18 06:10:00,73.2,73.2,29.12,West,272,2.7,2.7,100,0.00,,---,0.00,VWS V14.01,2013-07-18 11:10:00,
2013-07-18 06:15:00,73.6,73.6,29.12,West,276,2.7,3.1,100,0.00,,---,0.00,VWS V14.01,2013-07-18 11:15:00,
2013-07-18 06:20:00,73.9,73.9,29.12,WSW,239,2.7,2.7,100,0.00,,---,0.00,VWS V14.01,2013-07-18 11:20:00,
2013-07-18 06:25:00,74.3,74.3,29.12,West,263,2.7,3.1,100,0.00,,---,0.00,VWS V14.01,2013-07-18 11:25:00,
2013-07-18 06:30:00,74.7,74.7,29.12,West,259,4.0,5.4,100,0.00,,---,0.00,VWS V14.01,2013-07-18 11:30:00,
2013-07-18 06:35:00,75.0,75.0,29.12,WSW,257,3.6,3.6,100,0.00,,---,0.00,VWS V14.01,2013-07-18 11:35:00,
2013-07-18 06:40:00,75.4,75.4,29.12,West,280,3.1,3.1,100,0.00,,---,0.00,VWS V14.01,2013-07-18 11:40:00,
2013-07-18 06:45:00,75.6,75.6,29.12,West,274,4.0,4.0,100,0.00,,---,0.00,VWS V14.01,2013-07-18 11:45:00,
2013-07-18 06:50:00,75.7,75.8,29.12,West,259,2.7,2.7,100,0.00,,---,0.00,VWS V14.01,2013-07-18 11:50:00,
2013-07-18 06:55:00,76.1,76.1,29.12,West,263,3.6,5.4,100,0.00,,---,0.00,VWS V14.01,2013-07-18 11:55:00,
2013-07-18 07:00:00,76.1,76.1,29.12,West,270,4.9,7.2,100,0.00,,---,0.00,VWS V14.01,2013-07-18 12:00:00,
2013-07-18 07:05:00,76.5,76.5,29.09,West,267,3.6,5.4,100,0.00,,---,0.00,VWS V14.01,2013-07-18 12:05:00,
2013-07-18 07:10:00,76.6,76.7,29.09,West,279,5.8,5.8,100,0.00,,---,0.00,VWS V14.01,2013-07-18 12:10:00,
2013-07-18 07:15:00,77.0,77.0,29.09,West,274,5.8,5.8,100,0.00,,---,0.00,VWS V14.01,2013-07-18 12:15:00,
2013-07-18 07:20:00,77.2,77.2,29.12,SW,232,4.5,4.5,100,0.00,,---,0.00,VWS V14.01,2013-07-18 12:20:00,
2013-07-18 07:25:00,77.4,77.4,29.12,WSW,257,5.4,5.4,100,0.00,,---,0.00,VWS V14.01,2013-07-18 12:25:00,
2013-07-18 07:30:00,77.4,77.4,29.12,WNW,283,5.4,5.4,100,0.00,,---,0.00,VWS V14.01,2013-07-18 12:30:00,
2013-07-18 07:35:00,77.2,77.2,29.12,West,268,3.6,4.0,100,0.00,,---,0.00,VWS V14.01,2013-07-18 12:35:00,
2013-07-18 07:40:00,77.4,77.4,29.12,West,272,2.7,2.7,100,0.00,,---,0.00,VWS V14.01,2013-07-18 12:40:00,
2013-07-18 07:45:00,77.5,77.6,29.12,WSW,253,3.6,4.0,100,0.00,,---,0.00,VWS V14.01,2013-07-18 12:45:00,
2013-07-18 07:50:00,77.7,77.7,29.09,WSW,252,3.1,3.1,100,0.00,,---,0.00,VWS V14.01,2013-07-18 12:50:00,
2013-07-18 07:55:00,77.9,77.9,29.09,NW,305,4.9,4.9,100,0.00,,---,0.00,VWS V14.01,2013-07-18 12:55:00,
2013-07-18 08:00:00,78.3,78.3,29.09,WNW,297,5.4,6.3,100,0.00,,---,0.00,VWS V14.01,2013-07-18 13:00:00,
2013-07-18 08:05:00,78.3,78.3,29.12,West,277,3.6,5.4,100,0.00,,---,0.00,VWS V14.01,2013-07-18 13:05:00,
2013-07-18 08:10:00,78.4,78.4,29.12,WSW,258,2.2,3.6,100,0.00,,---,0.00,VWS V14.01,2013-07-18 13:10:00,
2013-07-18 08:15:00,79.0,79.0,29.12,West,261,6.3,6.3,100,0.00,,---,0.00,VWS V14.01,2013-07-18 13:15:00,
2013-07-18 08:20:00,79.0,79.0,29.12,NW,307,4.9,4.9,100,0.00,,---,0.00,VWS V14.01,2013-07-18 13:20:00,
2013-07-18 08:25:00,79.0,79.0,29.12,West,279,5.4,5.4,100,0.00,,---,0.00,VWS V14.01,2013-07-18 13:25:00,
2013-07-18 08:30:00,79.0,79.0,29.12,SW,219,3.6,5.4,100,0.00,,---,0.00,VWS V14.01,2013-07-18 13:30:00,
2013-07-18 08:35:00,79.2,79.2,29.12,West,276,3.1,4.0,100,0.00,,---,0.00,VWS V14.01,2013-07-18 13:35:00,
2013-07-18 08:40:00,79.5,79.5,29.12,WNW,299,3.6,5.4,100,0.00,,---,0.00,VWS V14.01,2013-07-18 13:40:00,
2013-07-18 08:45:00,79.7,79.7,29.12,SW,236,4.9,6.3,100,0.00,,---,0.00,VWS V14.01,2013-07-18 13:45:00,
2013-07-18 08:50:00,79.9,79.9,29.12,West,267,8.3,9.2,100,0.00,,---,0.00,VWS V14.01,2013-07-18 13:50:00,
2013-07-18 08:54:00,80.1,80.1,29.12,WSW,250,3.1,5.4,100,0.00,,---,0.00,VWS V14.01,2013-07-18 13:54:00,
2013-07-18 08:59:00,80.6,80.6,29.12,WNW,284,3.1,3.1,100,0.00,,---,0.00,VWS V14.01,2013-07-18 13:59:00,
2013-07-18 09:05:00,80.6,80.6,29.12,NW,317,2.7,5.4,100,0.00,,---,0.00,VWS V14.01,2013-07-18 14:05:00,
2013-07-18 09:10:00,81.0,81.0,29.12,WSW,256,2.7,5.4,100,0.00,,---,0.00,VWS V14.01,2013-07-18 14:10:00,
2013-07-18 09:15:00,81.0,80.7,29.12,SSW,193,5.8,5.8,99,0.00,,---,0.00,VWS V14.01,2013-07-18 14:15:00,
2013-07-18 09:20:00,81.5,81.2,29.09,NW,304,4.0,5.8,99,0.00,,---,0.00,VWS V14.01,2013-07-18 14:20:00,
2013-07-18 09:24:00,81.9,81.9,29.09,WNW,291,0.0,3.6,100,0.00,,---,0.00,VWS V14.01,2013-07-18 14:24:00,
2013-07-18 09:30:00,81.9,81.9,29.09,SW,227,2.7,3.6,100,0.00,,---,0.00,VWS V14.01,2013-07-18 14:30:00,
2013-07-18 09:34:00,81.9,81.9,29.09,SW,235,3.1,4.0,100,0.00,,---,0.00,VWS V14.01,2013-07-18 14:34:00,
2013-07-18 09:39:00,82.4,79.2,29.09,West,279,6.7,6.7,90,0.00,,---,0.00,VWS V14.01,2013-07-18 14:39:00,
2013-07-18 09:44:00,82.6,80.3,29.09,WNW,289,5.4,8.3,93,0.00,,---,0.00,VWS V14.01,2013-07-18 14:44:00,
2013-07-18 09:49:00,82.8,79.5,29.09,West,271,3.6,4.5,90,0.00,,---,0.00,VWS V14.01,2013-07-18 14:49:00,
2013-07-18 09:54:00,83.1,79.9,29.09,West,268,4.0,5.4,90,0.00,,---,0.00,VWS V14.01,2013-07-18 14:54:00,
2013-07-18 09:59:00,83.3,79.0,29.09,WSW,258,0.0,2.2,87,0.00,,---,0.00,VWS V14.01,2013-07-18 14:59:00,
2013-07-18 10:04:00,83.7,80.4,29.09,SW,229,4.0,5.8,90,0.00,,---,0.00,VWS V14.01,2013-07-18 15:04:00,
2013-07-18 10:09:00,84.0,79.7,29.09,WSW,254,3.6,6.3,87,0.00,,---,0.00,VWS V14.01,2013-07-18 15:09:00,
2013-07-18 10:14:00,84.2,77.7,29.09,NW,311,3.6,3.6,81,0.00,,---,0.00,VWS V14.01,2013-07-18 15:14:00,
2013-07-18 10:19:00,84.4,80.1,29.09,NW,308,5.4,5.4,87,0.00,,---,0.00,VWS V14.01,2013-07-18 15:19:00,
2013-07-18 10:24:00,84.6,74.5,29.09,West,261,4.0,4.0,72,0.00,,---,0.00,VWS V14.01,2013-07-18 15:24:00,
2013-07-18 10:29:00,84.9,76.1,29.09,WNW,287,5.4,5.8,75,0.00,,---,0.00,VWS V14.01,2013-07-18 15:29:00,
2013-07-18 10:34:00,85.1,77.5,29.09,WSW,255,3.6,5.8,78,0.00,,---,0.00,VWS V14.01,2013-07-18 15:34:00,
2013-07-18 10:39:00,85.5,75.4,29.09,WSW,256,3.6,5.4,72,0.00,,---,0.00,VWS V14.01,2013-07-18 15:39:00,
2013-07-18 10:44:00,85.8,73.2,29.09,West,277,5.4,5.4,66,0.00,,---,0.00,VWS V14.01,2013-07-18 15:44:00,
2013-07-18 10:49:00,86.2,73.5,29.09,WNW,293,3.1,6.3,66,0.00,,---,0.00,VWS V14.01,2013-07-18 15:49:00,
2013-07-18 10:54:00,87.1,73.0,29.09,West,280,5.4,5.4,63,0.00,,---,0.00,VWS V14.01,2013-07-18 15:54:00,
2013-07-18 10:59:00,87.3,70.2,29.09,WNW,303,5.4,5.4,57,0.00,,---,0.00,VWS V14.01,2013-07-18 15:59:00,
2013-07-18 11:04:00,88.3,75.6,29.09,NW,304,4.0,6.3,66,0.00,,---,0.00,VWS V14.01,2013-07-18 16:04:00,
2013-07-18 11:09:00,89.1,71.9,29.09,West,279,5.8,5.8,57,0.00,,---,0.00,VWS V14.01,2013-07-18 16:09:00,
2013-07-18 11:14:00,89.6,65.5,29.09,WNW,293,4.0,4.0,45,0.00,,---,0.00,VWS V14.01,2013-07-18 16:14:00,
2013-07-18 11:19:00,89.6,65.5,29.06,WNW,288,8.3,8.3,45,0.00,,---,0.00,VWS V14.01,2013-07-18 16:19:00,
2013-07-18 11:24:00,90.0,69.4,29.06,NNW,329,3.1,7.2,51,0.00,,---,0.00,VWS V14.01,2013-07-18 16:24:00,
2013-07-18 11:29:00,90.5,66.3,29.06,West,261,8.1,8.1,45,0.00,,---,0.00,VWS V14.01,2013-07-18 16:29:00,
2013-07-18 11:34:00,91.0,66.8,29.06,West,272,8.7,8.7,45,0.00,,---,0.00,VWS V14.01,2013-07-18 16:34:00,
2013-07-18 11:39:00,90.9,60.2,29.06,WSW,247,7.2,7.2,36,0.00,,---,0.00,VWS V14.01,2013-07-18 16:39:00,
2013-07-18 11:44:00,91.2,66.9,29.06,WSW,251,8.7,8.7,45,0.00,,---,0.00,VWS V14.01,2013-07-18 16:44:00,
2013-07-18 11:49:00,91.4,60.7,29.06,South,187,5.4,8.1,36,0.00,,---,0.00,VWS V14.01,2013-07-18 16:49:00,
2013-07-18 11:54:00,92.1,65.8,29.06,WSW,254,2.2,5.4,42,0.00,,---,0.00,VWS V14.01,2013-07-18 16:54:00,
2013-07-18 11:59:00,92.3,65.9,29.06,NW,316,5.8,5.8,42,0.00,,---,0.00,VWS V14.01,2013-07-18 16:59:00,
2013-07-18 12:04:00,92.5,66.1,29.06,West,274,4.9,5.8,42,0.00,,---,0.00,VWS V14.01,2013-07-18 17:04:00,
2013-07-18 12:09:00,92.1,61.3,29.06,West,260,6.3,6.3,36,0.00,,---,0.00,VWS V14.01,2013-07-18 17:09:00,
2013-07-18 12:14:00,92.5,61.7,29.06,WNW,289,5.4,5.8,36,0.00,,---,0.00,VWS V14.01,2013-07-18 17:14:00,
2013-07-18 12:19:00,92.7,61.8,29.03,WNW,287,4.0,4.9,36,0.00,,---,0.00,VWS V14.01,2013-07-18 17:19:00,
2013-07-18 12:24:00,92.8,62.0,29.03,West,260,6.3,8.7,36,0.00,,---,0.00,VWS V14.01,2013-07-18 17:24:00,
2013-07-18 12:29:00,92.5,61.7,29.03,NNW,330,3.1,6.3,36,0.00,,---,0.00,VWS V14.01,2013-07-18 17:29:00,
2013-07-18 12:34:00,92.3,61.5,29.06,ESE,120,4.0,6.3,36,0.00,,---,0.00,VWS V14.01,2013-07-18 17:34:00,
2013-07-18 12:39:00,92.3,61.5,29.06,SW,223,4.9,5.8,36,0.00,,---,0.00,VWS V14.01,2013-07-18 17:39:00,
2013-07-18 12:44:00,92.8,62.0,29.06,WSW,240,5.4,6.7,36,0.00,,---,0.00,VWS V14.01,2013-07-18 17:44:00,
2013-07-18 12:49:00,93.4,60.0,29.06,SW,228,3.1,5.4,33,0.00,,---,0.00,VWS V14.01,2013-07-18 17:49:00,
2013-07-18 12:54:00,93.4,60.0,29.06,WNW,303,4.0,5.4,33,0.00,,---,0.00,VWS V14.01,2013-07-18 17:54:00,
2013-07-18 12:59:00,92.8,54.0,29.06,WNW,292,4.0,4.5,27,0.00,,---,0.00,VWS V14.01,2013-07-18 17:59:00,
2013-07-18 13:04:00,93.4,60.0,29.03,WNW,299,5.8,5.8,33,0.00,,---,0.00,VWS V14.01,2013-07-18 18:04:00,
2013-07-18 13:09:00,93.2,54.3,29.03,NW,312,3.6,5.8,27,0.00,,---,0.00,VWS V14.01,2013-07-18 18:09:00,
2013-07-18 13:14:00,91.2,55.5,29.03,SW,229,2.2,2.7,30,0.00,,---,0.00,VWS V14.01,2013-07-18 18:14:00,
2013-07-18 13:19:00,90.1,65.9,29.03,West,264,0.0,0.0,45,0.00,,---,0.00,VWS V14.01,2013-07-18 18:19:00,
2013-07-18 13:24:00,89.2,70.4,29.03,North,0,3.6,3.6,54,0.00,,---,0.00,VWS V14.01,2013-07-18 18:24:00,
2013-07-18 13:29:00,88.9,71.7,29.03,WNW,292,5.8,5.8,57,0.00,,---,0.00,VWS V14.01,2013-07-18 18:29:00,
2013-07-18 13:34:00,88.9,71.7,29.03,SSE,160,3.6,4.9,57,0.00,,---,0.00,VWS V14.01,2013-07-18 18:34:00,
2013-07-18 13:39:00,88.9,70.1,29.03,West,277,4.9,4.9,54,0.00,,---,0.00,VWS V14.01,2013-07-18 18:39:00,
2013-07-18 13:44:00,88.2,69.4,29.03,West,278,6.3,6.3,54,0.00,,---,0.00,VWS V14.01,2013-07-18 18:44:00,
2013-07-18 13:49:00,88.2,69.4,29.00,West,259,4.0,4.0,54,0.00,,---,0.00,VWS V14.01,2013-07-18 18:49:00,
2013-07-18 13:54:00,88.5,72.9,29.00,West,280,4.9,5.8,60,0.00,,---,0.00,VWS V14.01,2013-07-18 18:54:00,
2013-07-18 13:59:00,88.2,69.4,29.00,WSW,248,4.0,5.4,54,0.00,,---,0.00,VWS V14.01,2013-07-18 18:59:00,
2013-07-18 14:04:00,88.7,69.9,29.00,West,259,6.3,11.0,54,0.00,,---,0.00,VWS V14.01,2013-07-18 19:04:00,
2013-07-18 14:09:00,89.1,60.9,29.00,West,275,5.4,5.4,39,0.00,,---,0.00,VWS V14.01,2013-07-18 19:09:00,
2013-07-18 14:14:00,89.2,61.1,29.00,West,266,5.8,5.8,39,0.00,,---,0.00,VWS V14.01,2013-07-18 19:14:00,
2013-07-18 14:19:00,88.7,60.6,29.00,WNW,300,5.4,5.4,39,0.00,,---,0.00,VWS V14.01,2013-07-18 19:19:00,
2013-07-18 14:24:00,88.9,64.8,29.00,NW,313,4.9,4.9,45,0.00,,---,0.00,VWS V14.01,2013-07-18 19:24:00,
2013-07-18 14:29:00,89.6,65.5,29.00,SW,236,3.6,3.6,45,0.00,,---,0.00,VWS V14.01,2013-07-18 19:29:00,
2013-07-18 14:34:00,90.3,69.8,29.00,West,279,8.1,8.1,51,0.00,,---,0.00,VWS V14.01,2013-07-18 19:34:00,
2013-07-18 14:39:00,90.5,59.9,29.00,WSW,252,5.4,6.3,36,0.00,,---,0.00,VWS V14.01,2013-07-18 19:39:00,
2013-07-18 14:44:00,90.7,60.1,29.00,SW,227,3.6,4.0,36,0.00,,---,0.00,VWS V14.01,2013-07-18 19:44:00,
2013-07-18 14:49:00,90.7,60.1,28.97,South,178,2.7,3.1,36,0.00,,---,0.00,VWS V14.01,2013-07-18 19:49:00,
2013-07-18 14:54:00,90.7,60.1,28.97,WNW,290,5.4,5.8,36,0.00,,---,0.00,VWS V14.01,2013-07-18 19:54:00,
2013-07-18 14:59:00,90.1,54.5,28.97,SSW,207,8.1,8.1,30,0.00,,---,0.00,VWS V14.01,2013-07-18 19:59:00,
2013-07-18 15:04:00,90.3,59.8,28.97,WNW,299,4.0,5.4,36,0.00,,---,0.00,VWS V14.01,2013-07-18 20:04:00,
2013-07-18 15:09:00,90.5,59.9,28.97,West,262,9.2,9.2,36,0.00,,---,0.00,VWS V14.01,2013-07-18 20:09:00,
2013-07-18 15:14:00,90.1,59.6,28.97,NW,316,10.1,10.1,36,0.00,,---,0.00,VWS V14.01,2013-07-18 20:14:00,
2013-07-18 15:19:00,89.6,54.1,28.97,WNW,290,5.8,7.2,30,0.00,,---,0.00,VWS V14.01,2013-07-18 20:19:00,
2013-07-18 15:24:00,89.8,59.3,28.97,SW,229,5.4,5.4,36,0.00,,---,0.00,VWS V14.01,2013-07-18 20:24:00,
2013-07-18 15:29:00,90.0,59.5,28.97,WSW,239,5.4,5.4,36,0.00,,---,0.00,VWS V14.01,2013-07-18 20:29:00,
2013-07-18 15:34:00,89.8,54.2,28.97,West,266,3.1,8.1,30,0.00,,---,0.00,VWS V14.01,2013-07-18 20:34:00,
2013-07-18 15:39:00,90.3,59.8,28.97,West,262,4.0,4.0,36,0.00,,---,0.00,VWS V14.01,2013-07-18 20:39:00,
2013-07-18 15:44:00,90.3,54.7,28.97,SSW,196,8.7,8.7,30,0.00,,---,0.00,VWS V14.01,2013-07-18 20:44:00,
2013-07-18 15:49:00,90.3,54.7,28.97,WNW,288,5.8,8.1,30,0.00,,---,0.00,VWS V14.01,2013-07-18 20:49:00,
2013-07-18 15:54:00,90.0,54.4,28.97,West,276,8.1,8.1,30,0.00,,---,0.00,VWS V14.01,2013-07-18 20:54:00,
2013-07-18 15:59:00,90.1,54.5,28.97,West,260,8.1,8.1,30,0.00,,---,0.00,VWS V14.01,2013-07-18 20:59:00,
2013-07-18 16:04:00,90.1,54.5,28.94,WSW,247,6.3,6.3,30,0.00,,---,0.00,VWS V14.01,2013-07-18 21:04:00,
2013-07-18 16:09:00,90.0,54.4,28.94,SW,224,7.6,7.6,30,0.00,,---,0.00,VWS V14.01,2013-07-18 21:09:00,
2013-07-18 16:14:00,90.1,54.5,28.94,West,268,4.9,4.9,30,0.00,,---,0.00,VWS V14.01,2013-07-18 21:14:00,
2013-07-18 16:19:00,90.0,54.4,28.94,SW,233,3.6,3.6,30,0.00,,---,0.00,VWS V14.01,2013-07-18 21:19:00,
2013-07-18 16:24:00,90.1,54.5,28.94,West,277,6.3,6.3,30,0.00,,---,0.00,VWS V14.01,2013-07-18 21:24:00,
2013-07-18 16:29:00,90.1,54.5,28.94,SW,228,5.8,5.8,30,0.00,,---,0.00,VWS V14.01,2013-07-18 21:29:00,
2013-07-18 16:34:00,90.1,54.5,28.94,WSW,247,2.7,3.1,30,0.00,,---,0.00,VWS V14.01,2013-07-18 21:34:00,
2013-07-18 16:39:00,90.1,54.5,28.94,WSW,239,3.6,3.6,30,0.00,,---,0.00,VWS V14.01,2013-07-18 21:39:00,
2013-07-18 16:44:00,90.1,54.5,28.94,WNW,288,5.4,7.6,30,0.00,,---,0.00,VWS V14.01,2013-07-18 21:44:00,
2013-07-18 16:49:00,90.1,54.5,28.94,West,275,3.1,8.3,30,0.00,,---,0.00,VWS V14.01,2013-07-18 21:49:00,
2013-07-18 16:54:00,90.1,54.5,28.94,WSW,253,5.8,7.6,30,0.00,,---,0.00,VWS V14.01,2013-07-18 21:54:00,
2013-07-18 16:59:00,89.6,54.1,28.94,SSW,196,5.8,7.2,30,0.00,,---,0.00,VWS V14.01,2013-07-18 21:59:00,
2013-07-18 17:04:00,89.4,61.2,28.94,SSW,213,5.8,12.3,39,0.00,,---,0.00,VWS V14.01,2013-07-18 22:04:00,
2013-07-18 17:09:00,89.6,54.1,28.94,WSW,249,5.8,5.8,30,0.00,,---,0.00,VWS V14.01,2013-07-18 22:09:00,
2013-07-18 17:14:00,89.6,54.1,28.94,West,274,6.3,12.3,30,0.00,,---,0.00,VWS V14.01,2013-07-18 22:14:00,
2013-07-18 17:18:00,89.6,54.1,28.94,West,275,5.8,7.6,30,0.00,,---,0.00,VWS V14.01,2013-07-18 22:18:00,
2013-07-18 17:19:00,89.6,54.1,28.94,West,275,5.8,7.6,30,0.00,,---,0.00,VWS V14.01,2013-07-18 22:19:00,
2013-07-18 17:24:00,89.2,53.8,28.94,NNW,329,7.2,10.5,30,0.00,,---,0.00,VWS V14.01,2013-07-18 22:24:00,
2013-07-18 17:29:00,89.2,53.8,28.94,WSW,256,4.0,6.3,30,0.00,,---,0.00,VWS V14.01,2013-07-18 22:29:00,
2013-07-18 17:34:00,88.9,53.5,28.94,West,267,4.0,6.3,30,0.00,,---,0.00,VWS V14.01,2013-07-18 22:34:00,
2013-07-18 17:38:00,88.7,53.3,28.94,WSW,247,6.3,6.3,30,0.00,,---,0.00,VWS V14.01,2013-07-18 22:38:00,
2013-07-18 17:43:00,88.9,60.8,28.94,WSW,249,3.6,6.3,39,0.00,,---,0.00,VWS V14.01,2013-07-18 22:43:00,
2013-07-18 17:48:00,88.7,53.3,28.94,SW,223,4.9,8.7,30,0.00,,---,0.00,VWS V14.01,2013-07-18 22:48:00,
2013-07-18 17:53:00,88.9,60.8,28.94,SW,229,4.0,6.7,39,0.00,,---,0.00,VWS V14.01,2013-07-18 22:53:00,
2013-07-18 17:58:00,89.1,60.9,28.94,NW,320,12.8,12.8,39,0.00,,---,0.00,VWS V14.01,2013-07-18 22:58:00,
2013-07-18 18:03:00,88.9,53.5,28.91,WNW,301,13.6,13.6,30,0.00,,---,0.00,VWS V14.01,2013-07-18 23:03:00,
2013-07-18 18:08:00,88.9,53.5,28.91,WNW,293,4.0,4.9,30,0.00,,---,0.00,VWS V14.01,2013-07-18 23:08:00,
2013-07-18 18:13:00,88.9,60.8,28.91,West,281,7.6,8.1,39,0.00,,---,0.00,VWS V14.01,2013-07-18 23:13:00,
2013-07-18 18:18:00,88.7,53.3,28.91,WSW,255,3.6,7.6,30,0.00,,---,0.00,VWS V14.01,2013-07-18 23:18:00,
2013-07-18 18:23:00,88.3,53.0,28.91,SW,224,4.0,8.1,30,0.00,,---,0.00,VWS V14.01,2013-07-18 23:23:00,
2013-07-18 18:28:00,88.2,52.8,28.91,West,278,3.6,6.7,30,0.00,,---,0.00,VWS V14.01,2013-07-18 23:28:00,
2013-07-18 18:33:00,87.8,52.5,28.91,West,265,6.3,8.7,30,0.00,,---,0.00,VWS V14.01,2013-07-18 23:33:00,
2013-07-18 18:38:00,88.2,60.1,28.91,WNW,302,9.6,9.6,39,0.00,,---,0.00,VWS V14.01,2013-07-18 23:38:00,
2013-07-18 18:43:00,88.2,60.1,28.91,WSW,238,3.1,4.9,39,0.00,,---,0.00,VWS V14.01,2013-07-18 23:43:00,
2013-07-18 18:48:00,88.0,60.0,28.91,WSW,254,6.3,8.1,39,0.00,,---,0.00,VWS V14.01,2013-07-18 23:48:00,
2013-07-18 18:53:00,88.0,60.0,28.91,WNW,283,8.3,9.2,39,0.00,,---,0.00,VWS V14.01,2013-07-18 23:53:00,
2013-07-18 18:58:00,87.8,63.8,28.91,West,264,8.1,8.1,45,0.00,,---,0.00,VWS V14.01,2013-07-18 23:58:00,
2013-07-18 19:03:00,87.4,59.5,28.91,WNW,298,5.8,5.8,39,0.00,,---,0.00,VWS V14.01,2013-07-19 00:03:00,
2013-07-18 19:08:00,87.4,59.5,28.91,WSW,241,4.9,7.2,39,0.00,,---,0.00,VWS V14.01,2013-07-19 00:08:00,
2013-07-18 19:13:00,87.4,59.5,28.91,WSW,244,2.7,4.9,39,0.00,,---,0.00,VWS V14.01,2013-07-19 00:13:00,
2013-07-18 19:18:00,87.3,59.3,28.88,WSW,247,3.6,5.8,39,0.00,,---,0.00,VWS V14.01,2013-07-19 00:18:00,
2013-07-18 19:23:00,87.1,59.2,28.88,WSW,245,8.7,12.8,39,0.00,,---,0.00,VWS V14.01,2013-07-19 00:23:00,
2013-07-18 19:28:00,87.1,59.2,28.88,WSW,249,6.7,6.7,39,0.00,,---,0.00,VWS V14.01,2013-07-19 00:28:00,
2013-07-18 19:33:00,86.9,59.0,28.88,WSW,237,5.4,6.3,39,0.00,,---,0.00,VWS V14.01,2013-07-19 00:33:00,
2013-07-18 19:38:00,86.5,58.7,28.88,SW,235,8.3,8.3,39,0.00,,---,0.00,VWS V14.01,2013-07-19 00:38:00,
2013-07-18 19:43:00,86.2,58.3,28.88,NW,314,5.4,5.8,39,0.00,,---,0.00,VWS V14.01,2013-07-19 00:43:00,
2013-07-18 19:48:00,86.0,58.2,28.88,NNW,335,5.8,8.7,39,0.00,,---,0.00,VWS V14.01,2013-07-19 00:48:00,
2013-07-18 19:53:00,86.2,58.3,28.88,South,171,3.1,3.6,39,0.00,,---,0.00,VWS V14.01,2013-07-19 00:53:00,
2013-07-18 19:58:00,85.8,58.0,28.88,West,281,3.6,3.6,39,0.00,,---,0.00,VWS V14.01,2013-07-19 00:58:00,
2013-07-18 20:03:00,85.6,57.9,28.88,North,8,2.7,4.9,39,0.00,,---,0.00,VWS V14.01,2013-07-19 01:03:00,
2013-07-18 20:08:00,85.3,63.4,28.88,SW,231,5.4,5.8,48,0.00,,---,0.00,VWS V14.01,2013-07-19 01:08:00,
2013-07-18 20:13:00,85.1,63.2,28.88,NW,305,6.3,6.3,48,0.00,,---,0.00,VWS V14.01,2013-07-19 01:13:00,
2013-07-18 20:18:00,84.9,63.1,28.88,WNW,297,2.2,4.0,48,0.00,,---,0.00,VWS V14.01,2013-07-19 01:18:00,
2013-07-18 20:23:00,84.4,65.9,28.88,WSW,241,4.5,6.3,54,0.00,,---,0.00,VWS V14.01,2013-07-19 01:23:00,
2013-07-18 20:28:00,84.4,67.5,28.88,SW,219,2.2,5.8,57,0.00,,---,0.00,VWS V14.01,2013-07-19 01:28:00,
2013-07-18 20:33:00,84.2,65.8,28.88,SSW,208,4.0,6.3,54,0.00,,---,0.00,VWS V14.01,2013-07-19 01:33:00,
2013-07-18 20:38:00,84.2,67.3,28.88,West,261,4.0,4.0,57,0.00,,---,0.00,VWS V14.01,2013-07-19 01:38:00,
2013-07-18 20:43:00,83.8,67.0,28.88,WNW,296,2.7,6.3,57,0.00,,---,0.00,VWS V14.01,2013-07-19 01:43:00,
2013-07-18 20:48:00,83.8,68.5,28.88,WSW,248,3.1,4.0,60,0.00,,---,0.00,VWS V14.01,2013-07-19 01:48:00,
2013-07-18 20:53:00,83.5,66.7,28.88,WNW,289,4.0,6.3,57,0.00,,---,0.00,VWS V14.01,2013-07-19 01:53:00,
2013-07-18 20:58:00,83.3,68.0,28.88,SSW,212,2.7,2.7,60,0.00,,---,0.00,VWS V14.01,2013-07-19 01:58:00,
2013-07-18 21:03:00,83.1,67.8,28.88,SSW,204,3.1,5.4,60,0.00,,---,0.00,VWS V14.01,2013-07-19 02:03:00,
2013-07-18 21:08:00,82.8,70.2,28.88,WSW,240,2.2,2.7,66,0.00,,---,0.00,VWS V14.01,2013-07-19 02:08:00,
2013-07-18 21:13:00,82.2,69.7,28.88,WSW,257,3.6,4.0,66,0.00,,---,0.00,VWS V14.01,2013-07-19 02:13:00,
2013-07-18 21:18:00,82.0,69.6,28.88,WSW,237,4.0,4.0,66,0.00,,---,0.00,VWS V14.01,2013-07-19 02:18:00,
2013-07-18 21:23:00,81.9,69.4,28.88,West,272,4.0,4.0,66,0.00,,---,0.00,VWS V14.01,2013-07-19 02:23:00,
2013-07-18 21:28:00,81.5,71.6,28.88,SSW,200,2.2,3.1,72,0.00,,---,0.00,VWS V14.01,2013-07-19 02:28:00,
2013-07-18 21:33:00,81.3,73.8,28.88,WNW,303,0.0,0.0,78,0.00,,---,0.00,VWS V14.01,2013-07-19 02:33:00,
2013-07-18 21:38:00,81.0,74.6,28.88,West,265,2.7,3.1,81,0.00,,---,0.00,VWS V14.01,2013-07-19 02:38:00,
2013-07-18 21:43:00,80.8,76.6,28.88,SW,223,0.0,0.0,87,0.00,,---,0.00,VWS V14.01,2013-07-19 02:43:00,
2013-07-18 21:48:00,80.6,76.4,28.91,SW,224,3.6,4.0,87,0.00,,---,0.00,VWS V14.01,2013-07-19 02:48:00,
2013-07-18 21:53:00,80.4,77.2,28.91,SSW,213,3.1,3.1,90,0.00,,---,0.00,VWS V14.01,2013-07-19 02:53:00,
2013-07-18 21:58:00,80.2,77.0,28.91,SW,223,3.1,4.0,90,0.00,,---,0.00,VWS V14.01,2013-07-19 02:58:00,
2013-07-18 22:03:00,80.2,77.0,28.91,SW,233,3.6,3.6,90,0.00,,---,0.00,VWS V14.01,2013-07-19 03:03:00,
2013-07-18 22:08:00,80.2,77.0,28.91,North,10,2.7,2.7,90,0.00,,---,0.00,VWS V14.01,2013-07-19 03:08:00,
2013-07-18 22:13:00,80.2,77.0,28.91,WSW,244,5.4,5.4,90,0.00,,---,0.00,VWS V14.01,2013-07-19 03:13:00,
2013-07-18 22:18:00,80.4,78.2,28.88,WNW,285,3.1,3.1,93,0.00,,---,0.00,VWS V14.01,2013-07-19 03:18:00,
2013-07-18 22:23:00,80.2,77.0,28.88,WNW,286,4.9,4.9,90,0.00,,---,0.00,VWS V14.01,2013-07-19 03:23:00,
2013-07-18 22:28:00,80.4,77.2,28.88,South,189,3.6,6.3,90,0.00,,---,0.00,VWS V14.01,2013-07-19 03:28:00,
2013-07-18 22:33:00,80.4,78.2,28.88,West,279,5.8,5.8,93,0.00,,---,0.00,VWS V14.01,2013-07-19 03:33:00,
2013-07-18 22:38:00,80.2,78.0,28.88,WNW,289,2.7,3.6,93,0.00,,---,0.00,VWS V14.01,2013-07-19 03:38:00,
2013-07-18 22:43:00,80.2,77.0,28.88,West,265,4.9,4.9,90,0.00,,---,0.00,VWS V14.01,2013-07-19 03:43:00,
2013-07-18 22:48:00,80.6,77.4,28.88,NW,313,3.6,3.6,90,0.00,,---,0.00,VWS V14.01,2013-07-19 03:48:00,
2013-07-18 22:53:00,80.6,76.4,28.88,SSW,209,2.7,3.6,87,0.00,,---,0.00,VWS V14.01,2013-07-19 03:53:00,
2013-07-18 22:58:00,81.0,75.7,28.88,SSW,204,2.7,2.7,84,0.00,,---,0.00,VWS V14.01,2013-07-19 03:58:00,
2013-07-18 23:01:00,81.0,75.7,28.88,West,265,5.8,5.8,84,0.00,,---,0.00,VWS V14.01,2013-07-19 04:01:00,
2013-07-18 23:06:00,81.0,75.7,28.88,WSW,247,3.1,3.1,84,0.00,,---,0.00,VWS V14.01,2013-07-19 04:06:00,
2013-07-18 23:11:00,81.0,76.7,28.88,SW,235,7.6,7.6,87,0.00,,---,0.00,VWS V14.01,2013-07-19 04:11:00,
2013-07-18 23:16:00,81.0,75.7,28.88,SW,231,5.8,6.3,84,0.00,,---,0.00,VWS V14.01,2013-07-19 04:16:00,
2013-07-18 23:21:00,81.1,74.8,28.88,WNW,303,4.0,4.0,81,0.00,,---,0.00,VWS V14.01,2013-07-19 04:21:00,
2013-07-18 23:26:00,81.0,75.7,28.88,WSW,245,3.6,3.6,84,0.00,,---,0.00,VWS V14.01,2013-07-19 04:26:00,
2013-07-18 23:31:00,81.0,75.7,28.88,West,267,6.3,6.3,84,0.00,,---,0.00,VWS V14.01,2013-07-19 04:31:00,
2013-07-18 23:36:00,80.8,75.5,28.88,NW,312,4.0,4.0,84,0.00,,---,0.00,VWS V14.01,2013-07-19 04:36:00,
2013-07-18 23:41:00,81.0,75.7,28.88,NW,319,4.9,5.8,84,0.00,,---,0.00,VWS V14.01,2013-07-19 04:41:00,
2013-07-18 23:46:00,80.8,74.4,28.88,SW,220,5.4,5.4,81,0.00,,---,0.00,VWS V14.01,2013-07-19 04:46:00,
2013-07-18 23:51:00,80.6,76.4,28.88,West,274,3.1,3.1,87,0.00,,---,0.00,VWS V14.01,2013-07-19 04:51:00,
2013-07-18 23:56:00,80.4,76.2,28.88,SW,230,3.1,4.0,87,0.00,,---,0.00,VWS V14.01,2013-07-19 04:56:00,